PDT,Max TemperatureF,Mean TemperatureF,Min TemperatureF,Max Dew PointF,MeanDew PointF,Min DewpointF,Max Humidity, Mean Humidity, Min Humidity, Max Sea Level PressureIn, Mean Sea Level PressureIn, Min Sea Level PressureIn, Max VisibilityMiles, Mean VisibilityMiles, Min VisibilityMiles, Max Wind SpeedMPH, Mean Wind SpeedMPH, Max Gust SpeedMPH,PrecipitationIn, CloudCover, Events, WindDirDegrees
2013-9-1,91,79,66,65,58,50,69,55,41,29.92,29.89,29.85,10,10,10,20,6,26,0.00,0,,229
2013-9-2,94,79,64,62,57,54,73,53,33,29.94,29.88,29.81,10,10,10,18,7,23,0.00,0,,280
2013-9-3,95,79,63,57,54,48,84,54,24,29.97,29.91,29.83,10,10,10,18,10,22,0.00,0,,306
2013-9-4,95,79,62,53,51,49,72,47,22,30.00,29.93,29.85,10,10,10,17,10,22,0.00,0,,312
2013-9-5,94,77,59,54,51,48,80,51,22,29.99,29.93,29.85,10,10,10,21,13,25,0.00,0,,316
2013-9-6,99,78,56,51,47,39,77,45,13,29.95,29.88,29.78,10,10,10,16,5,18,0.00,0,,292
2013-9-7,98,76,53,51,39,16,66,36,5,29.89,29.85,29.80,10,10,10,18,6,23,0.00,0,,209
2013-9-8,101,78,54,51,43,29,75,42,8,29.88,29.81,29.71,10,10,10,16,5,20,0.00,0,,238
2013-9-9,102,79,56,49,45,38,62,37,11,29.81,29.75,29.67,10,10,10,16,4,20,0.00,0,,194
2013-9-10,80,68,55,53,51,47,80,59,37,29.91,29.82,29.75,10,10,10,20,9,26,0.00,0,,204
2013-9-11,83,67,51,55,52,49,93,62,31,30.01,29.95,29.90,10,10,5,20,7,23,0.00,3,,221
2013-9-12,93,72,50,55,52,42,93,56,18,29.99,29.92,29.81,10,10,7,20,6,29,0.00,2,,284
2013-9-13,96,76,55,56,52,41,100,58,16,29.90,29.82,29.68,10,8,0,24,7,28,0.00,2,Fog,315
2013-9-14,96,75,54,53,48,31,93,52,10,29.81,29.74,29.65,10,10,7,22,9,25,0.00,1,,318
2013-9-15,93,74,54,53,49,41,93,56,18,29.83,29.78,29.72,10,10,10,20,9,25,0.00,0,,313
2013-9-16,94,74,54,54,50,45,86,53,19,29.87,29.81,29.73,10,10,10,18,7,23,0.00,0,,300
2013-9-17,84,70,56,52,48,40,80,50,20,29.88,29.83,29.77,10,10,10,25,17,31,0.00,0,,315
2013-9-18,88,67,45,50,45,41,89,55,21,29.91,29.84,29.76,10,10,10,17,5,,0.00,0,,321
2013-9-19,95,70,45,45,39,32,76,44,11,29.86,29.80,29.70,10,10,10,15,4,18,0.00,0,,121
2013-9-20,81,66,50,54,45,35,86,57,27,29.88,29.81,29.78,10,10,10,22,8,28,0.00,0,,202
2013-9-21,74,65,56,57,53,49,87,67,46,29.90,29.88,29.83,10,10,10,22,8,28,0.00,5,,210
2013-9-22,78,64,50,52,48,43,89,59,28,29.97,29.93,29.87,10,10,10,14,6,53,0.00,2,,342
2013-9-23,88,68,48,50,46,42,86,54,21,30.01,29.94,29.86,10,10,10,16,6,28,0.00,0,,42
2013-9-24,89,69,49,52,46,40,77,48,18,29.98,29.90,29.82,10,10,10,20,9,56,0.00,0,,326
2013-9-25,76,64,51,47,43,35,83,53,23,29.92,29.85,29.76,10,10,10,28,15,28,0.00,0,,325
2013-9-26,77,62,47,44,38,31,86,53,19,29.96,29.87,29.81,10,10,10,18,8,63,0.00,0,,314
2013-9-27,81,60,38,36,31,25,70,42,13,30.09,30.03,29.97,10,10,10,12,2,,0.00,0,,353
2013-9-28,88,64,40,34,28,16,62,35,7,30.09,30.04,29.96,10,10,10,13,3,83,0.00,0,,289
2013-9-29,92,68,43,54,33,25,78,44,10,30.12,30.05,29.96,10,10,10,20,6,23,0.00,0,,323
2013-9-30,86,66,46,56,48,35,87,52,16,30.09,30.00,29.89,10,10,10,17,6,,0.00,0,,321